timestamp,waterbody_station,lease,latitude,longitude,deployment_start_date,deployment_end_date,sensor,depth,mooring,Dissolved Oxygen_percent saturation,Temperature_degrees Celsius,Salinity_practical salinity units
2022-05-24T00:00:00,Annapolis Basin-Lobster Ledge,,44.678248,-65.683392,2021-06-16,2022-06-20,VR2AR-547094,6.0,fixed,,8.2,
2022-05-24T00:07:00,Annapolis Basin-Lobster Ledge,,44.678248,-65.683392,2021-06-16,2022-06-20,aquaMeasure-670356,4.0,fixed,,8.76,
2022-05-24T00:17:00,Annapolis Basin-Lobster Ledge,,44.678248,-65.683392,2021-06-16,2022-06-20,aquaMeasure-670356,4.0,fixed,,8.69,
2022-05-24T00:27:00,Annapolis Basin-Lobster Ledge,,44.678248,-65.683392,2021-06-16,2022-06-20,aquaMeasure-670356,4.0,fixed,,8.73,
2022-05-24T00:37:00,Annapolis Basin-Lobster Ledge,,44.678248,-65.683392,2021-06-16,2022-06-20,aquaMeasure-670356,4.0,fixed,,8.73,
2022-05-24T00:47:00,Annapolis Basin-Lobster Ledge,,44.678248,-65.683392,2021-06-16,2022-06-20,aquaMeasure-670356,4.0,fixed,,8.82,
2022-05-24T00:57:00,Annapolis Basin-Lobster Ledge,,44.678248,-65.683392,2021-06-16,2022-06-20,aquaMeasure-670356,4.0,fixed,,8.9,
2022-05-24T01:00:00,Annapolis Basin-Lobster Ledge,,44.678248,-65.683392,2021-06-16,2022-06-20,VR2AR-547094,6.0,fixed,,8.4,
2022-05-24T01:07:00,Annapolis Basin-Lobster Ledge,,44.678248,-65.683392,2021-06-16,2022-06-20,aquaMeasure-670356,4.0,fixed,,8.94,
2022-05-24T01:17:00,Annapolis Basin-Lobster Ledge,,44.678248,-65.683392,2021-06-16,2022-06-20,aquaMeasure-670356,4.0,fixed,,9.0,
2022-05-24T01:27:00,Annapolis Basin-Lobster Ledge,,44.678248,-65.683392,2021-06-16,2022-06-20,aquaMeasure-670356,4.0,fixed,,9.04,
2022-05-24T01:37:00,Annapolis Basin-Lobster Ledge,,44.678248,-65.683392,2021-06-16,2022-06-20,aquaMeasure-670356,4.0,fixed,,9.12,
2022-05-24T01:47:00,Annapolis Basin-Lobster Ledge,,44.678248,-65.683392,2021-06-16,2022-06-20,aquaMeasure-670356,4.0,fixed,,9.28,
2022-05-24T01:57:00,Annapolis Basin-Lobster Ledge,,44.678248,-65.683392,2021-06-16,2022-06-20,aquaMeasure-670356,4.0,fixed,,9.38,
2022-05-24T02:00:00,Annapolis Basin-Lobster Ledge,,44.678248,-65.683392,2021-06-16,2022-06-20,VR2AR-547094,6.0,fixed,,8.6,
2022-05-24T02:07:00,Annapolis Basin-Lobster Ledge,,44.678248,-65.683392,2021-06-16,2022-06-20,aquaMeasure-670356,4.0,fixed,,9.46,
2022-05-24T02:17:00,Annapolis Basin-Lobster Ledge,,44.678248,-65.683392,2021-06-16,2022-06-20,aquaMeasure-670356,4.0,fixed,,9.61,
2022-05-24T02:27:00,Annapolis Basin-Lobster Ledge,,44.678248,-65.683392,2021-06-16,2022-06-20,aquaMeasure-670356,4.0,fixed,,9.73,
2022-05-24T02:37:00,Annapolis Basin-Lobster Ledge,,44.678248,-65.683392,2021-06-16,2022-06-20,aquaMeasure-670356,4.0,fixed,,9.77,
2022-05-24T02:47:00,Annapolis Basin-Lobster Ledge,,44.678248,-65.683392,2021-06-16,2022-06-20,aquaMeasure-670356,4.0,fixed,,9.95,
2022-05-24T02:57:00,Annapolis Basin-Lobster Ledge,,44.678248,-65.683392,2021-06-16,2022-06-20,aquaMeasure-670356,4.0,fixed,,10.16,
2022-05-24T03:00:00,Annapolis Basin-Lobster Ledge,,44.678248,-65.683392,2021-06-16,2022-06-20,VR2AR-547094,6.0,fixed,,9.0,
2022-05-24T03:07:00,Annapolis Basin-Lobster Ledge,,44.678248,-65.683392,2021-06-16,2022-06-20,aquaMeasure-670356,4.0,fixed,,10.32,
2022-05-24T03:17:00,Annapolis Basin-Lobster Ledge,,44.678248,-65.683392,2021-06-16,2022-06-20,aquaMeasure-670356,4.0,fixed,,10.36,
2022-05-24T03:27:00,Annapolis Basin-Lobster Ledge,,44.678248,-65.683392,2021-06-16,2022-06-20,aquaMeasure-670356,4.0,fixed,,10.46,
2022-05-24T03:37:00,Annapolis Basin-Lobster Ledge,,44.678248,-65.683392,2021-06-16,2022-06-20,aquaMeasure-670356,4.0,fixed,,10.54,
2022-05-24T03:47:00,Annapolis Basin-Lobster Ledge,,44.678248,-65.683392,2021-06-16,2022-06-20,aquaMeasure-670356,4.0,fixed,,10.65,
2022-05-24T03:57:00,Annapolis Basin-Lobster Ledge,,44.678248,-65.683392,2021-06-16,2022-06-20,aquaMeasure-670356,4.0,fixed,,10.73,
2022-05-24T04:00:00,Annapolis Basin-Lobster Ledge,,44.678248,-65.683392,2021-06-16,2022-06-20,VR2AR-547094,6.0,fixed,,9.4,
2022-05-24T04:07:00,Annapolis Basin-Lobster Ledge,,44.678248,-65.683392,2021-06-16,2022-06-20,aquaMeasure-670356,4.0,fixed,,10.85,
2022-05-24T04:17:00,Annapolis Basin-Lobster Ledge,,44.678248,-65.683392,2021-06-16,2022-06-20,aquaMeasure-670356,4.0,fixed,,10.07,
2022-05-24T04:27:00,Annapolis Basin-Lobster Ledge,,44.678248,-65.683392,2021-06-16,2022-06-20,aquaMeasure-670356,4.0,fixed,,10.24,
2022-05-24T04:37:00,Annapolis Basin-Lobster Ledge,,44.678248,-65.683392,2021-06-16,2022-06-20,aquaMeasure-670356,4.0,fixed,,10.32,
2022-05-24T04:47:00,Annapolis Basin-Lobster Ledge,,44.678248,-65.683392,2021-06-16,2022-06-20,aquaMeasure-670356,4.0,fixed,,10.28,
2022-05-24T04:57:00,Annapolis Basin-Lobster Ledge,,44.678248,-65.683392,2021-06-16,2022-06-20,aquaMeasure-670356,4.0,fixed,,10.2,
2022-05-24T05:00:00,Annapolis Basin-Lobster Ledge,,44.678248,-65.683392,2021-06-16,2022-06-20,VR2AR-547094,6.0,fixed,,9.4,
2022-05-24T05:07:00,Annapolis Basin-Lobster Ledge,,44.678248,-65.683392,2021-06-16,2022-06-20,aquaMeasure-670356,4.0,fixed,,10.2,
2022-05-24T05:17:00,Annapolis Basin-Lobster Ledge,,44.678248,-65.683392,2021-06-16,2022-06-20,aquaMeasure-670356,4.0,fixed,,10.13,
2022-05-24T05:27:00,Annapolis Basin-Lobster Ledge,,44.678248,-65.683392,2021-06-16,2022-06-20,aquaMeasure-670356,4.0,fixed,,9.99,
2022-05-24T05:37:00,Annapolis Basin-Lobster Ledge,,44.678248,-65.683392,2021-06-16,2022-06-20,aquaMeasure-670356,4.0,fixed,,9.85,
2022-05-24T05:47:00,Annapolis Basin-Lobster Ledge,,44.678248,-65.683392,2021-06-16,2022-06-20,aquaMeasure-670356,4.0,fixed,,9.79,
2022-05-24T05:57:00,Annapolis Basin-Lobster Ledge,,44.678248,-65.683392,2021-06-16,2022-06-20,aquaMeasure-670356,4.0,fixed,,9.67,
2022-05-24T06:00:00,Annapolis Basin-Lobster Ledge,,44.678248,-65.683392,2021-06-16,2022-06-20,VR2AR-547094,6.0,fixed,,9.3,
2022-05-24T06:07:00,Annapolis Basin-Lobster Ledge,,44.678248,-65.683392,2021-06-16,2022-06-20,aquaMeasure-670356,4.0,fixed,,9.67,
2022-05-24T06:17:00,Annapolis Basin-Lobster Ledge,,44.678248,-65.683392,2021-06-16,2022-06-20,aquaMeasure-670356,4.0,fixed,,9.61,
2022-05-24T06:27:00,Annapolis Basin-Lobster Ledge,,44.678248,-65.683392,2021-06-16,2022-06-20,aquaMeasure-670356,4.0,fixed,,9.55,
2022-05-24T06:37:00,Annapolis Basin-Lobster Ledge,,44.678248,-65.683392,2021-06-16,2022-06-20,aquaMeasure-670356,4.0,fixed,,9.44,
2022-05-24T06:47:00,Annapolis Basin-Lobster Ledge,,44.678248,-65.683392,2021-06-16,2022-06-20,aquaMeasure-670356,4.0,fixed,,9.32,
2022-05-24T06:57:00,Annapolis Basin-Lobster Ledge,,44.678248,-65.683392,2021-06-16,2022-06-20,aquaMeasure-670356,4.0,fixed,,9.2,
2022-05-24T07:00:00,Annapolis Basin-Lobster Ledge,,44.678248,-65.683392,2021-06-16,2022-06-20,VR2AR-547094,6.0,fixed,,8.9,
2022-05-24T07:07:00,Annapolis Basin-Lobster Ledge,,44.678248,-65.683392,2021-06-16,2022-06-20,aquaMeasure-670356,4.0,fixed,,9.08,
2022-05-24T07:17:00,Annapolis Basin-Lobster Ledge,,44.678248,-65.683392,2021-06-16,2022-06-20,aquaMeasure-670356,4.0,fixed,,9.02,
2022-05-24T07:27:00,Annapolis Basin-Lobster Ledge,,44.678248,-65.683392,2021-06-16,2022-06-20,aquaMeasure-670356,4.0,fixed,,8.98,
2022-05-24T07:37:00,Annapolis Basin-Lobster Ledge,,44.678248,-65.683392,2021-06-16,2022-06-20,aquaMeasure-670356,4.0,fixed,,8.96,
2022-05-24T07:47:00,Annapolis Basin-Lobster Ledge,,44.678248,-65.683392,2021-06-16,2022-06-20,aquaMeasure-670356,4.0,fixed,,8.92,
2022-05-24T07:57:00,Annapolis Basin-Lobster Ledge,,44.678248,-65.683392,2021-06-16,2022-06-20,aquaMeasure-670356,4.0,fixed,,8.86,
2022-05-24T08:00:00,Annapolis Basin-Lobster Ledge,,44.678248,-65.683392,2021-06-16,2022-06-20,VR2AR-547094,6.0,fixed,,8.6,
2022-05-24T08:07:00,Annapolis Basin-Lobster Ledge,,44.678248,-65.683392,2021-06-16,2022-06-20,aquaMeasure-670356,4.0,fixed,,8.78,
2022-05-24T08:17:00,Annapolis Basin-Lobster Ledge,,44.678248,-65.683392,2021-06-16,2022-06-20,aquaMeasure-670356,4.0,fixed,,8.73,
2022-05-24T08:27:00,Annapolis Basin-Lobster Ledge,,44.678248,-65.683392,2021-06-16,2022-06-20,aquaMeasure-670356,4.0,fixed,,8.55,
2022-05-24T08:37:00,Annapolis Basin-Lobster Ledge,,44.678248,-65.683392,2021-06-16,2022-06-20,aquaMeasure-670356,4.0,fixed,,8.47,
2022-05-24T08:47:00,Annapolis Basin-Lobster Ledge,,44.678248,-65.683392,2021-06-16,2022-06-20,aquaMeasure-670356,4.0,fixed,,8.43,
2022-05-24T08:57:00,Annapolis Basin-Lobster Ledge,,44.678248,-65.683392,2021-06-16,2022-06-20,aquaMeasure-670356,4.0,fixed,,8.41,
2022-05-24T09:00:00,Annapolis Basin-Lobster Ledge,,44.678248,-65.683392,2021-06-16,2022-06-20,VR2AR-547094,6.0,fixed,,8.1,
2022-05-24T09:07:00,Annapolis Basin-Lobster Ledge,,44.678248,-65.683392,2021-06-16,2022-06-20,aquaMeasure-670356,4.0,fixed,,8.41,
2022-05-24T09:17:00,Annapolis Basin-Lobster Ledge,,44.678248,-65.683392,2021-06-16,2022-06-20,aquaMeasure-670356,4.0,fixed,,8.41,
2022-05-24T09:27:00,Annapolis Basin-Lobster Ledge,,44.678248,-65.683392,2021-06-16,2022-06-20,aquaMeasure-670356,4.0,fixed,,8.41,
2022-05-24T09:37:00,Annapolis Basin-Lobster Ledge,,44.678248,-65.683392,2021-06-16,2022-06-20,aquaMeasure-670356,4.0,fixed,,8.39,
2022-05-24T09:47:00,Annapolis Basin-Lobster Ledge,,44.678248,-65.683392,2021-06-16,2022-06-20,aquaMeasure-670356,4.0,fixed,,8.41,
2022-05-24T09:57:00,Annapolis Basin-Lobster Ledge,,44.678248,-65.683392,2021-06-16,2022-06-20,aquaMeasure-670356,4.0,fixed,,8.41,
2022-05-24T10:00:00,Annapolis Basin-Lobster Ledge,,44.678248,-65.683392,2021-06-16,2022-06-20,VR2AR-547094,6.0,fixed,,8.1,
2022-05-24T10:07:00,Annapolis Basin-Lobster Ledge,,44.678248,-65.683392,2021-06-16,2022-06-20,aquaMeasure-670356,4.0,fixed,,8.41,
2022-05-24T10:17:00,Annapolis Basin-Lobster Ledge,,44.678248,-65.683392,2021-06-16,2022-06-20,aquaMeasure-670356,4.0,fixed,,8.39,
2022-05-24T10:27:00,Annapolis Basin-Lobster Ledge,,44.678248,-65.683392,2021-06-16,2022-06-20,aquaMeasure-670356,4.0,fixed,,8.41,
2022-05-24T10:37:00,Annapolis Basin-Lobster Ledge,,44.678248,-65.683392,2021-06-16,2022-06-20,aquaMeasure-670356,4.0,fixed,,8.39,
2022-05-24T10:47:00,Annapolis Basin-Lobster Ledge,,44.678248,-65.683392,2021-06-16,2022-06-20,aquaMeasure-670356,4.0,fixed,,8.39,
2022-05-24T10:57:00,Annapolis Basin-Lobster Ledge,,44.678248,-65.683392,2021-06-16,2022-06-20,aquaMeasure-670356,4.0,fixed,,8.39,
2022-05-24T11:00:00,Annapolis Basin-Lobster Ledge,,44.678248,-65.683392,2021-06-16,2022-06-20,VR2AR-547094,6.0,fixed,,8.1,
2022-05-24T11:07:00,Annapolis Basin-Lobster Ledge,,44.678248,-65.683392,2021-06-16,2022-06-20,aquaMeasure-670356,4.0,fixed,,8.39,
2022-05-24T11:17:00,Annapolis Basin-Lobster Ledge,,44.678248,-65.683392,2021-06-16,2022-06-20,aquaMeasure-670356,4.0,fixed,,8.41,
2022-05-24T11:27:00,Annapolis Basin-Lobster Ledge,,44.678248,-65.683392,2021-06-16,2022-06-20,aquaMeasure-670356,4.0,fixed,,8.41,
2022-05-24T11:37:00,Annapolis Basin-Lobster Ledge,,44.678248,-65.683392,2021-06-16,2022-06-20,aquaMeasure-670356,4.0,fixed,,8.45,
2022-05-24T11:47:00,Annapolis Basin-Lobster Ledge,,44.678248,-65.683392,2021-06-16,2022-06-20,aquaMeasure-670356,4.0,fixed,,8.47,
2022-05-24T11:57:00,Annapolis Basin-Lobster Ledge,,44.678248,-65.683392,2021-06-16,2022-06-20,aquaMeasure-670356,4.0,fixed,,8.47,
2022-05-24T12:00:00,Annapolis Basin-Lobster Ledge,,44.678248,-65.683392,2021-06-16,2022-06-20,VR2AR-547094,6.0,fixed,,8.1,
2022-05-24T12:07:00,Annapolis Basin-Lobster Ledge,,44.678248,-65.683392,2021-06-16,2022-06-20,aquaMeasure-670356,4.0,fixed,,8.53,
2022-05-24T12:17:00,Annapolis Basin-Lobster Ledge,,44.678248,-65.683392,2021-06-16,2022-06-20,aquaMeasure-670356,4.0,fixed,,8.57,
2022-05-24T12:27:00,Annapolis Basin-Lobster Ledge,,44.678248,-65.683392,2021-06-16,2022-06-20,aquaMeasure-670356,4.0,fixed,,8.65,
2022-05-24T12:37:00,Annapolis Basin-Lobster Ledge,,44.678248,-65.683392,2021-06-16,2022-06-20,aquaMeasure-670356,4.0,fixed,,8.67,
2022-05-24T12:47:00,Annapolis Basin-Lobster Ledge,,44.678248,-65.683392,2021-06-16,2022-06-20,aquaMeasure-670356,4.0,fixed,,8.73,
2022-05-24T12:57:00,Annapolis Basin-Lobster Ledge,,44.678248,-65.683392,2021-06-16,2022-06-20,aquaMeasure-670356,4.0,fixed,,8.8,
2022-05-24T13:00:00,Annapolis Basin-Lobster Ledge,,44.678248,-65.683392,2021-06-16,2022-06-20,VR2AR-547094,6.0,fixed,,8.1,
2022-05-24T13:07:00,Annapolis Basin-Lobster Ledge,,44.678248,-65.683392,2021-06-16,2022-06-20,aquaMeasure-670356,4.0,fixed,,8.82,
2022-05-24T13:17:00,Annapolis Basin-Lobster Ledge,,44.678248,-65.683392,2021-06-16,2022-06-20,aquaMeasure-670356,4.0,fixed,,8.86,
2022-05-24T13:27:00,Annapolis Basin-Lobster Ledge,,44.678248,-65.683392,2021-06-16,2022-06-20,aquaMeasure-670356,4.0,fixed,,8.9,
2022-05-24T13:37:00,Annapolis Basin-Lobster Ledge,,44.678248,-65.683392,2021-06-16,2022-06-20,aquaMeasure-670356,4.0,fixed,,8.9,
2022-05-24T13:47:00,Annapolis Basin-Lobster Ledge,,44.678248,-65.683392,2021-06-16,2022-06-20,aquaMeasure-670356,4.0,fixed,,8.96,
2022-05-24T13:57:00,Annapolis Basin-Lobster Ledge,,44.678248,-65.683392,2021-06-16,2022-06-20,aquaMeasure-670356,4.0,fixed,,9.04,
2022-05-24T14:00:00,Annapolis Basin-Lobster Ledge,,44.678248,-65.683392,2021-06-16,2022-06-20,VR2AR-547094,6.0,fixed,,8.3,
2022-05-24T14:07:00,Annapolis Basin-Lobster Ledge,,44.678248,-65.683392,2021-06-16,2022-06-20,aquaMeasure-670356,4.0,fixed,,9.14,
2022-05-24T14:17:00,Annapolis Basin-Lobster Ledge,,44.678248,-65.683392,2021-06-16,2022-06-20,aquaMeasure-670356,4.0,fixed,,9.22,
2022-05-24T14:27:00,Annapolis Basin-Lobster Ledge,,44.678248,-65.683392,2021-06-16,2022-06-20,aquaMeasure-670356,4.0,fixed,,9.24,
2022-05-24T14:37:00,Annapolis Basin-Lobster Ledge,,44.678248,-65.683392,2021-06-16,2022-06-20,aquaMeasure-670356,4.0,fixed,,9.26,
2022-05-24T14:47:00,Annapolis Basin-Lobster Ledge,,44.678248,-65.683392,2021-06-16,2022-06-20,aquaMeasure-670356,4.0,fixed,,9.34,
2022-05-24T14:57:00,Annapolis Basin-Lobster Ledge,,44.678248,-65.683392,2021-06-16,2022-06-20,aquaMeasure-670356,4.0,fixed,,9.4,
2022-05-24T15:00:00,Annapolis Basin-Lobster Ledge,,44.678248,-65.683392,2021-06-16,2022-06-20,VR2AR-547094,6.0,fixed,,8.6,
2022-05-24T15:07:00,Annapolis Basin-Lobster Ledge,,44.678248,-65.683392,2021-06-16,2022-06-20,aquaMeasure-670356,4.0,fixed,,9.42,
2022-05-24T15:17:00,Annapolis Basin-Lobster Ledge,,44.678248,-65.683392,2021-06-16,2022-06-20,aquaMeasure-670356,4.0,fixed,,9.67,
2022-05-24T15:27:00,Annapolis Basin-Lobster Ledge,,44.678248,-65.683392,2021-06-16,2022-06-20,aquaMeasure-670356,4.0,fixed,,9.87,
2022-05-24T15:37:00,Annapolis Basin-Lobster Ledge,,44.678248,-65.683392,2021-06-16,2022-06-20,aquaMeasure-670356,4.0,fixed,,10.01,
2022-05-24T15:47:00,Annapolis Basin-Lobster Ledge,,44.678248,-65.683392,2021-06-16,2022-06-20,aquaMeasure-670356,4.0,fixed,,10.05,
2022-05-24T15:57:00,Annapolis Basin-Lobster Ledge,,44.678248,-65.683392,2021-06-16,2022-06-20,aquaMeasure-670356,4.0,fixed,,10.03,
2022-05-24T16:00:00,Annapolis Basin-Lobster Ledge,,44.678248,-65.683392,2021-06-16,2022-06-20,VR2AR-547094,6.0,fixed,,9.2,
2022-05-24T16:07:00,Annapolis Basin-Lobster Ledge,,44.678248,-65.683392,2021-06-16,2022-06-20,aquaMeasure-670356,4.0,fixed,,10.07,
2022-05-24T16:17:00,Annapolis Basin-Lobster Ledge,,44.678248,-65.683392,2021-06-16,2022-06-20,aquaMeasure-670356,4.0,fixed,,10.05,
2022-05-24T16:27:00,Annapolis Basin-Lobster Ledge,,44.678248,-65.683392,2021-06-16,2022-06-20,aquaMeasure-670356,4.0,fixed,,10.18,
2022-05-24T16:37:00,Annapolis Basin-Lobster Ledge,,44.678248,-65.683392,2021-06-16,2022-06-20,aquaMeasure-670356,4.0,fixed,,10.26,
2022-05-24T16:47:00,Annapolis Basin-Lobster Ledge,,44.678248,-65.683392,2021-06-16,2022-06-20,aquaMeasure-670356,4.0,fixed,,9.95,
2022-05-24T16:57:00,Annapolis Basin-Lobster Ledge,,44.678248,-65.683392,2021-06-16,2022-06-20,aquaMeasure-670356,4.0,fixed,,9.71,
2022-05-24T17:00:00,Annapolis Basin-Lobster Ledge,,44.678248,-65.683392,2021-06-16,2022-06-20,VR2AR-547094,6.0,fixed,,9.1,
2022-05-24T17:07:00,Annapolis Basin-Lobster Ledge,,44.678248,-65.683392,2021-06-16,2022-06-20,aquaMeasure-670356,4.0,fixed,,9.79,
2022-05-24T17:17:00,Annapolis Basin-Lobster Ledge,,44.678248,-65.683392,2021-06-16,2022-06-20,aquaMeasure-670356,4.0,fixed,,9.67,
2022-05-24T17:27:00,Annapolis Basin-Lobster Ledge,,44.678248,-65.683392,2021-06-16,2022-06-20,aquaMeasure-670356,4.0,fixed,,9.75,
2022-05-24T17:37:00,Annapolis Basin-Lobster Ledge,,44.678248,-65.683392,2021-06-16,2022-06-20,aquaMeasure-670356,4.0,fixed,,9.5,
2022-05-24T17:47:00,Annapolis Basin-Lobster Ledge,,44.678248,-65.683392,2021-06-16,2022-06-20,aquaMeasure-670356,4.0,fixed,,9.48,
2022-05-24T17:57:00,Annapolis Basin-Lobster Ledge,,44.678248,-65.683392,2021-06-16,2022-06-20,aquaMeasure-670356,4.0,fixed,,9.38,
2022-05-24T18:00:00,Annapolis Basin-Lobster Ledge,,44.678248,-65.683392,2021-06-16,2022-06-20,VR2AR-547094,6.0,fixed,,9.0,
2022-05-24T18:07:00,Annapolis Basin-Lobster Ledge,,44.678248,-65.683392,2021-06-16,2022-06-20,aquaMeasure-670356,4.0,fixed,,9.36,
2022-05-24T18:17:00,Annapolis Basin-Lobster Ledge,,44.678248,-65.683392,2021-06-16,2022-06-20,aquaMeasure-670356,4.0,fixed,,9.34,
2022-05-24T18:27:00,Annapolis Basin-Lobster Ledge,,44.678248,-65.683392,2021-06-16,2022-06-20,aquaMeasure-670356,4.0,fixed,,9.36,
2022-05-24T18:37:00,Annapolis Basin-Lobster Ledge,,44.678248,-65.683392,2021-06-16,2022-06-20,aquaMeasure-670356,4.0,fixed,,9.34,
2022-05-24T18:47:00,Annapolis Basin-Lobster Ledge,,44.678248,-65.683392,2021-06-16,2022-06-20,aquaMeasure-670356,4.0,fixed,,9.26,
2022-05-24T18:57:00,Annapolis Basin-Lobster Ledge,,44.678248,-65.683392,2021-06-16,2022-06-20,aquaMeasure-670356,4.0,fixed,,9.16,
2022-05-24T19:00:00,Annapolis Basin-Lobster Ledge,,44.678248,-65.683392,2021-06-16,2022-06-20,VR2AR-547094,6.0,fixed,,8.8,
2022-05-24T19:07:00,Annapolis Basin-Lobster Ledge,,44.678248,-65.683392,2021-06-16,2022-06-20,aquaMeasure-670356,4.0,fixed,,8.96,
2022-05-24T19:17:00,Annapolis Basin-Lobster Ledge,,44.678248,-65.683392,2021-06-16,2022-06-20,aquaMeasure-670356,4.0,fixed,,8.78,
2022-05-24T19:27:00,Annapolis Basin-Lobster Ledge,,44.678248,-65.683392,2021-06-16,2022-06-20,aquaMeasure-670356,4.0,fixed,,8.71,
2022-05-24T19:37:00,Annapolis Basin-Lobster Ledge,,44.678248,-65.683392,2021-06-16,2022-06-20,aquaMeasure-670356,4.0,fixed,,8.78,
2022-05-24T19:47:00,Annapolis Basin-Lobster Ledge,,44.678248,-65.683392,2021-06-16,2022-06-20,aquaMeasure-670356,4.0,fixed,,8.86,
2022-05-24T19:57:00,Annapolis Basin-Lobster Ledge,,44.678248,-65.683392,2021-06-16,2022-06-20,aquaMeasure-670356,4.0,fixed,,8.88,
2022-05-24T20:00:00,Annapolis Basin-Lobster Ledge,,44.678248,-65.683392,2021-06-16,2022-06-20,VR2AR-547094,6.0,fixed,,8.5,
2022-05-24T20:07:00,Annapolis Basin-Lobster Ledge,,44.678248,-65.683392,2021-06-16,2022-06-20,aquaMeasure-670356,4.0,fixed,,8.9,
2022-05-24T20:17:00,Annapolis Basin-Lobster Ledge,,44.678248,-65.683392,2021-06-16,2022-06-20,aquaMeasure-670356,4.0,fixed,,8.9,
2022-05-24T20:27:00,Annapolis Basin-Lobster Ledge,,44.678248,-65.683392,2021-06-16,2022-06-20,aquaMeasure-670356,4.0,fixed,,8.88,
2022-05-24T20:37:00,Annapolis Basin-Lobster Ledge,,44.678248,-65.683392,2021-06-16,2022-06-20,aquaMeasure-670356,4.0,fixed,,8.8,
2022-05-24T20:47:00,Annapolis Basin-Lobster Ledge,,44.678248,-65.683392,2021-06-16,2022-06-20,aquaMeasure-670356,4.0,fixed,,8.59,
2022-05-24T20:57:00,Annapolis Basin-Lobster Ledge,,44.678248,-65.683392,2021-06-16,2022-06-20,aquaMeasure-670356,4.0,fixed,,8.51,
2022-05-24T21:00:00,Annapolis Basin-Lobster Ledge,,44.678248,-65.683392,2021-06-16,2022-06-20,VR2AR-547094,6.0,fixed,,8.2,
2022-05-24T21:07:00,Annapolis Basin-Lobster Ledge,,44.678248,-65.683392,2021-06-16,2022-06-20,aquaMeasure-670356,4.0,fixed,,8.51,
2022-05-24T21:17:00,Annapolis Basin-Lobster Ledge,,44.678248,-65.683392,2021-06-16,2022-06-20,aquaMeasure-670356,4.0,fixed,,8.49,
2022-05-24T21:27:00,Annapolis Basin-Lobster Ledge,,44.678248,-65.683392,2021-06-16,2022-06-20,aquaMeasure-670356,4.0,fixed,,8.49,
2022-05-24T21:37:00,Annapolis Basin-Lobster Ledge,,44.678248,-65.683392,2021-06-16,2022-06-20,aquaMeasure-670356,4.0,fixed,,8.51,
2022-05-24T21:47:00,Annapolis Basin-Lobster Ledge,,44.678248,-65.683392,2021-06-16,2022-06-20,aquaMeasure-670356,4.0,fixed,,8.53,
2022-05-24T21:57:00,Annapolis Basin-Lobster Ledge,,44.678248,-65.683392,2021-06-16,2022-06-20,aquaMeasure-670356,4.0,fixed,,8.57,
2022-05-24T22:00:00,Annapolis Basin-Lobster Ledge,,44.678248,-65.683392,2021-06-16,2022-06-20,VR2AR-547094,6.0,fixed,,8.2,
2022-05-24T22:07:00,Annapolis Basin-Lobster Ledge,,44.678248,-65.683392,2021-06-16,2022-06-20,aquaMeasure-670356,4.0,fixed,,8.57,
2022-05-24T22:17:00,Annapolis Basin-Lobster Ledge,,44.678248,-65.683392,2021-06-16,2022-06-20,aquaMeasure-670356,4.0,fixed,,8.55,
2022-05-24T22:27:00,Annapolis Basin-Lobster Ledge,,44.678248,-65.683392,2021-06-16,2022-06-20,aquaMeasure-670356,4.0,fixed,,8.53,
2022-05-24T22:37:00,Annapolis Basin-Lobster Ledge,,44.678248,-65.683392,2021-06-16,2022-06-20,aquaMeasure-670356,4.0,fixed,,8.53,
2022-05-24T22:47:00,Annapolis Basin-Lobster Ledge,,44.678248,-65.683392,2021-06-16,2022-06-20,aquaMeasure-670356,4.0,fixed,,8.55,
2022-05-24T22:57:00,Annapolis Basin-Lobster Ledge,,44.678248,-65.683392,2021-06-16,2022-06-20,aquaMeasure-670356,4.0,fixed,,8.55,
2022-05-24T23:00:00,Annapolis Basin-Lobster Ledge,,44.678248,-65.683392,2021-06-16,2022-06-20,VR2AR-547094,6.0,fixed,,8.2,
2022-05-24T23:07:00,Annapolis Basin-Lobster Ledge,,44.678248,-65.683392,2021-06-16,2022-06-20,aquaMeasure-670356,4.0,fixed,,8.57,
2022-05-24T23:17:00,Annapolis Basin-Lobster Ledge,,44.678248,-65.683392,2021-06-16,2022-06-20,aquaMeasure-670356,4.0,fixed,,8.57,
2022-05-24T23:27:00,Annapolis Basin-Lobster Ledge,,44.678248,-65.683392,2021-06-16,2022-06-20,aquaMeasure-670356,4.0,fixed,,8.57,
2022-05-24T23:37:00,Annapolis Basin-Lobster Ledge,,44.678248,-65.683392,2021-06-16,2022-06-20,aquaMeasure-670356,4.0,fixed,,8.59,
2022-05-24T23:47:00,Annapolis Basin-Lobster Ledge,,44.678248,-65.683392,2021-06-16,2022-06-20,aquaMeasure-670356,4.0,fixed,,8.59,
2022-05-24T23:57:00,Annapolis Basin-Lobster Ledge,,44.678248,-65.683392,2021-06-16,2022-06-20,aquaMeasure-670356,4.0,fixed,,8.57,
